www.pogodaiklimat.ru

Погода и климат >> Архив погоды >> Россия >> Якутия >> Чурапча


ПОГОДА в Чурапче

  • Прогноз погоды в Чурапче
  • Монитор погоды в Чурапче
  • Климат города

АРХИВ ПОГОДЫ в Чурапче

Время (UTC), дата Ветер
(напр.,м/с)
 
Видим.   Явления Облачность Т
(С)
Тd
(С)
f
(%)
Тe
(С)
Тes
(С)
Комфортность P
(гПа)
Po
(гПа)
Тmin
(С)
Tmax
(С)
R
(мм)
R24
(мм)
S
(см)
09 18.04 СВ 1 50 км 8/8 600 м
[Cu hum]
+3.0 -14.1 27 +3 +3 1012.5 989.9
12 18.04 В 2 50 км 3/3 600 м
[Cu hum]
-2.2 -8.1 64 -6 -6 1013.5 990.4 +7.0
15 18.04 В 2 50 км 3/3 600 м
[Cu hum]
-2.2 -8.1 64 -6 -6 1013.5 990.4 +7.0
18 18.04 СВ 1 50 км 6/6 600 м
[Sc]
-6.5 -11.0 70 -9 -9 1014.1 990.7
21 18.04 В 2 50 км 9/9 600 м
[Sc]
-6.8 -9.3 82 -11 -11 1014.7 991.2
00 19.04 В 1 50 км 4/0
[Ci fib]
-0.6 -9.1 53 -2 +4 1014.8 991.8 -7.8 5
03 19.04 Ю 3 50 км 8/6 600 м
[Cu hum Ci fib]
+3.4 -11.3 33 +1 +3 1014.3 991.7
06 19.04 Ю 4 50 км 9/9 600 м
[Sc diur, vesp]
+2.9 -7.6 46 -1 -1 1014.7 992.0
09 19.04 ЮВ 3 50 км 4/4 600 м
[Cu med, cong]
+1.4 -2.4 76 -3 -2 1015.8 993.0
12 19.04 ЮВ 2 50 км 3/3 600 м
[Sc Ci fib]
-1.7 -3.4 88 -6 -6 1017.0 993.9 +5.3
15 19.04 В 1 50 км 4/0
[Ac trans]
-2.3 -2.6 98 -5 -5 1017.1 994.0
18 19.04 В 1 50 км 3/0
[Ac trans]
-5.1 -5.4 98 -8 -8 1017.4 994.0
21 19.04 В 1 20 км 8/4 600 м
[Sc Ci fib]
-6.5 -7.3 94 -9 -9 1017.6 994.1
00 20.04 СВ 1 50 км 3/1 600 м
[Cu hum Ci fib]
+0.7 -1.3 86 -1 +5 1016.1 993.2 -6.6 2
03 20.04 В 2 50 км 9/9 600 м
[Sc]
+4.5 -4.7 51 +2 +3 1013.8 991.3
06 20.04 В 2 50 км 9/9 600 м
[Sc]
+5.9 -5.8 43 +4 +5 1012.3 989.9
09 20.04 ЮВ 5 50 км 9/8 600 м
[Sc Ci fib]
+5.3 -6.3 43 +2 +2 1011.1 988.7
12 20.04 ЮВ 3 50 км 4/3 600 м
[Sc Ci fib]
+2.5 -5.6 55 -1 -1 1011.5 988.9 +6.7
15 20.04 В 3 50 км 3/0
[Ci fib]
+0.5 -7.7 54 -3 -3 1010.5 987.7
18 20.04 ЮВ 2 50 км 6/0
[Ci fib]
+0.1 -7.0 59 -3 -3 1009.4 986.6
21 20.04 ЮВ 4 50 км 9/0
[Ci fib]
+0.8 -7.2 55 -4 -3 1009.3 986.6
00 21.04 ЮВ 5 50 км 3/0
[Ac trans]
+4.8 -3.1 57 +1 +3 1008.8 986.4 -0.9 0
03 21.04 ЮВ 5 50 км 5/0
[Ac lent]
+8.0 -6.9 34 +5 +8 1008.1 986.0
06 21.04 ЮВ 3 50 км 8/8 600 м
[Cu hum]
+7.9 -4.4 41 +6 +7 1008.0 985.9
09 21.04 В 3 50 км 9/9 600 м
[Sc]
+6.4 -5.7 42 +4 +4 1008.9 986.7
12 21.04 В 3 20 км 9/9 600 м
[Sc]
+5.6 -6.2 42 +3 +3 1010.2 987.9 +9.7
15 21.04 В 4 20 км 9/9 600 м
[Sc]
+4.5 -7.2 42 +1 +1 1010.6 988.2
18 21.04 В 4 20 км 9/9 600 м
[Sc]
+3.5 -5.8 51 -0 -0 1011.5 989.0
21 21.04 В 3 50 км 6/6 600 м
[Sc]
+2.0 -3.6 66 -2 -2 1012.9 990.2
00 22.04 ЮВ 5 50 км 3/0
[Ci fib]
+6.0 -3.6 50 +2 +5 1014.1 991.7 +1.8 0
03 22.04 ЮВ 4 50 км 4/0
[Ci fib]
+9.0 -4.3 39 +7 +13 1014.5 992.3
06 22.04 ЮВ 4 50 км 3/0
[Ci fib]
+10.1 -3.6 38 +8 +12 1015.0 992.9
09 22.04 В 3 50 км ясно +9.1 -2.3 45 +7 +8 1015.8 993.6
12 22.04 В 2 50 км ясно +4.2 -3.6 57 +2 +2 1017.2 994.6 +10.4
15 22.04 СВ 1 50 км ясно +0.6 -5.1 66 -1 -1 1018.4 995.5
18 22.04 СВ 2 50 км 3/0
[Ci fib]
-1.0 -4.9 75 -5 -5 1019.8 996.7
21 22.04 СВ 1 50 км 3/0
[Ci fib]
+0.5 -4.1 71 -1 -0 1020.3 997.3
00 23.04 В 2 50 км 3/0
[Ci fib]
+7.3 -3.6 46 +6 +11 1020.3 997.9 -2.4 0
03 23.04 В 2 50 км 3/0
[Ci fib]
+11.4 -4.2 33 +11 +20 1019.8 997.7
06 23.04 В 2 50 км 9/0
[Ci fib]
+12.4 -3.6 33 +12 +17 1019.2 997.2
09 23.04 В 1 50 км 9/3 600 м
[Sc diur, vesp Ci fib]
+12.1 -4.2 32 +13 +13 1019.2 997.2
12 23.04 штиль 0 50 км 9/0
[Ac trans Ci fib]
+6.4 -0.7 60 +6 +6 1020.4 997.9 +12.9
15 23.04 штиль 0 20 км 9/0
[Ac trans Ci fib]
+1.7 -2.1 76 +1 +1 1021.3 998.4
18 23.04 ЮЗ 1 20 км 9/6 600 м
[Sc Ac trans]
+4.3 -3.9 55 +4 +4 1021.9 999.2
21 23.04 ЮВ 2 20 км 9/9 600 м
[Sc]
+2.4 -2.8 69 -0 -0 1022.7 999.8
00 24.04 ЮВ 3 50 км 9/8 600 м
[Cb cap Ci sp]
+7.6 -0.1 58 +5 +6 1022.5 1000.1 +1.0 0
03 24.04 В 2 50 км 9/6 600 м
[Sc Ci sp]
+9.6 -1.9 44 +9 +12 1022.3 1000.0
06 24.04 Ю 2 50 км 9/9 600 м
[Sc]
+10.7 -2.4 40 +10 +11 1021.7 999.5
09 24.04 З 3 50 км 8/8 600 м
[Sc diur, vesp]
+11.2 -2.9 37 +10 +10 1021.2 999.1
12 24.04 З 2 50 км 3/3 600 м
[Sc]
+4.9 -4.5 51 +3 +3 1022.7 1000.0 +12.6
15 24.04 З 1 50 км 3/3 600 м
[Sc]
+1.0 -5.4 62 -0 -0 1023.6 1000.6
18 24.04 ЮЗ 1 50 км 3/3 600 м
[Sc]
-2.7 -4.3 89 -5 -5 1024.1 1000.8
21 24.04 штиль 0 50 км 4/0
[Ci fib]
-1.8 -4.2 84 -3 -2 1023.7 1000.5
00 25.04 З 3 20 км 3/0
[Ci fib]
+5.3 -6.9 41 +3 +7 1022.5 999.9 -3.4 0
03 25.04 ЮЗ 3 50 км 8/8 600 м
[Cu hum]
+7.5 -8.1 32 +6 +7 1020.8 998.4

 

Местоположение метеостанции Чурапча (Якутия, Россия): широта 62.03 долгота 132.60 высота над уровнем моря 186 м.

В архиве по умолчанию представлена погода в Чурапче за последнюю неделю. Архивные данные за месяц целиком и за предыдущие месяцы, начиная с января 2011 года, Вы можете получить, выбрав интересующий диапазон дат из раскрывающегося списка и нажав кнопку "Ввод!".

Внимание! Время в таблицах - всемирное. Для получения местного времени необходимо прибавить поправку, которая в Чурапче равна 9 ч.

Смотрите также архив погоды в соседних городах и на ближайших метеорологических станциях:

Погода в Ытык-Кюёле (Якутия, Россия) (60 км)
Погода в Крест-Хальджае (Якутия, Россия) (128 км)
Погода в Амге (Якутия, Россия) (131 км)
Погода в Верхоянском Перевозе (Якутия, Россия) (147 км)
Погода в Охотском Перевозе (Якутия, Россия) (153 км)
Погода в Якутске (Якутия, Россия) (157 км)
Погода в Намцах (Якутия, Россия) (173 км)
Погода в Покровске (Якутия, Россия) (194 км)
Погода в Усть-Мае (Якутия, Россия) (210 км)
Погода в Тегюльте (Якутия, Россия) (222 км)

Пояснения к столбцам:

Ветер - указаны скорость ветра в м/с - средняя за 10 мин, порывы в срок и между сроками (в фигурных скобках) и направление, откуда дует ветер: С - северный, СВ - северо-восточный, В - восточный, ЮВ - юго-восточный, Ю - южный, ЮЗ - юго-западный, З - западный, СЗ - северо-западный.
Видимость - горизонтальная дальность видимости в метрах или километрах. При видимости от 1 до 10 км при отсутствии осадков обычно наблюдается дымка, при ухудшении видимости до 1 км и менее - туман. В сухую погоду видимость может ухудшаться дымом, пылью или мглою.
Явления - указаны атмосферные явления, наблюдавшиеся в срок или в последний час перед сроком; фигурными скобками обозначены явления, наблюдавшиеся между сроками (за 1-3 часа до срока); квадратными скобками обозначены град или гололедные отложения с указанием их диаметра в мм.
Облачность - указаны через наклонную черту общая и нижняя облачность в баллах и высота нижней границы облаков в метрах; квадратными скобками обозначены формы облаков: Ci - перистые, Cs - перисто-слоистые, Cc - перисто-кучевые, Ac - высококучевые, As - высокослоистые, Sc - слоисто-кучевые, Ns - слоисто-дождевые, Cu - кучевые, Cb - кучево-дождевые. Подробнее классификацию облаков см. в Атласе облаков (PDF).
T - Температура воздуха - температура, измеренная на высоте 2 м над землей.
Td - Температура точки росы - температура, при понижении до которой содержащийся в воздухе водяной пар достигнет насыщения.
f - Относительная влажность воздуха - влажноcть воздуха, измеренная на высоте 2 м над землей.
Te - Эффективная температура - температура, которую ощущает одетый по сезону человек в тени. Характеристика душности погоды. При расчете учитывается влияние влажности воздуха и скорости ветра на теплоощущения человека.
Tes - Эффективная температура на солнце - температура, которую ощущает человек, с поправкой на солнечный нагрев. Характеристика знойности погоды. Зависит от высоты солнца над горизонтом, облачности и скорости ветра. Ночью, в пасмурную погоду, а также при ветре 12 м/с и более поправка равна нулю.
P - Атмосферное давление - приведенное к уровню моря атмосферное давление.
Po - Атмосферное давление - измеренное на уровне метеостанции атмосферное давление.
Tmin - Минимальная температура - минимум температуры воздуха на высоте 2 м над землей.
Tmax - Максимальная температура - максимум температуры воздуха на высоте 2 м над землей.
R - Количество осадков - Количество выпавших осадков за период времени, мм. При наведении курсора мыши на число - период времени, за который выпало указанное количество осадков.
R24 - Количество осадков - Количество выпавших осадков за 24 часа, мм.
S - Снежный покров - Высота снежного покрова, см. При наведении курсора мыши на число - состояние снежного покрова и степень покрытия местности в баллах.